DKEKS EDXM-EDXM

Flight info

Callsign DKEKS
Flight time 0h 59m
Altitude 3000
Route DCT
Aircraft A33E/L-SFG/C

Departure

Time 2026-05-07 17:20
Airport Sankt Michaelisdonn Airfield (EDXM)

Arrival

Time 2026-05-07 18:20
Airport Sankt Michaelisdonn Airfield (EDXM)
Time Latitude Longitude Altitude Speed Heading
2026-05-07 17:17 53.97817 9.14975 128 ft 0 kts 268°
2026-05-07 17:19 53.97830 9.14957 126 ft 6 kts 354°
2026-05-07 17:19 53.97863 9.14940 129 ft 2 kts 293°
2026-05-07 17:19 53.97861 9.14911 129 ft 12 kts 258°
2026-05-07 17:20 53.97819 9.14514 149 ft 51 kts 258°
2026-05-07 17:20 53.97742 9.13829 340 ft 58 kts 262°
2026-05-07 17:20 53.97620 9.13235 706 ft 49 kts 245°
2026-05-07 17:20 53.97208 9.13026 889 ft 84 kts 181°
2026-05-07 17:21 53.96648 9.13370 1150 ft 76 kts 181°
2026-05-07 17:21 53.96142 9.13562 1302 ft 76 kts 193°
2026-05-07 17:21 53.95638 9.13588 1509 ft 72 kts 205°
2026-05-07 17:21 53.95117 9.13703 1735 ft 82 kts 180°
2026-05-07 17:22 53.94571 9.14096 1952 ft 82 kts 180°
2026-05-07 17:22 53.94017 9.14369 2204 ft 83 kts 163°
2026-05-07 17:22 53.93757 9.15110 2512 ft 67 kts 61°
2026-05-07 17:22 53.94052 9.15124 2581 ft 53 kts 272°
2026-05-07 17:23 53.93867 9.14583 2773 ft 54 kts 242°
2026-05-07 17:23 53.93653 9.14048 2996 ft 53 kts 263°
2026-05-07 17:23 53.93927 9.14043 3151 ft 78 kts 71°
2026-05-07 17:23 53.93619 9.14390 3388 ft 60 kts 242°
2026-05-07 17:24 53.93839 9.14158 3544 ft 73 kts 37°
2026-05-07 17:24 53.93732 9.14857 3762 ft 69 kts 184°
2026-05-07 17:24 53.93726 9.14475 3929 ft 63 kts
2026-05-07 17:24 53.93770 9.15090 4108 ft 72 kts 163°
2026-05-07 17:25 53.93640 9.14741 4206 ft 67 kts 346°
2026-05-07 17:25 53.93685 9.15368 4369 ft 74 kts 175°
2026-05-07 17:25 53.93581 9.14926 4517 ft 60 kts 336°
2026-05-07 17:25 53.93877 9.15359 4639 ft 79 kts 94°
2026-05-07 17:26 53.93562 9.15463 4774 ft 60 kts 280°
2026-05-07 17:26 53.93823 9.15733 4896 ft 80 kts 110°
2026-05-07 17:26 53.93599 9.15624 4954 ft 73 kts 330°
2026-05-07 17:26 53.93691 9.16202 5123 ft 77 kts 169°
2026-05-07 17:27 53.93666 9.15836 5229 ft 72 kts 12°
2026-05-07 17:27 53.93711 9.16649 5396 ft 75 kts 107°
2026-05-07 17:27 53.93516 9.17441 5489 ft 71 kts 155°
2026-05-07 17:27 53.93448 9.17031 5337 ft 80 kts 333°
2026-05-07 17:28 53.93882 9.17091 5548 ft 67 kts 16°
2026-05-07 17:28 53.94257 9.17533 5633 ft 78 kts 75°
2026-05-07 17:28 53.93935 9.17720 5696 ft 61 kts 233°
2026-05-07 17:28 53.93675 9.17152 5824 ft 58 kts 243°
2026-05-07 17:29 53.93569 9.16546 5933 ft 59 kts 302°
2026-05-07 17:29 53.93838 9.16939 6056 ft 79 kts 112°
2026-05-07 17:29 53.93531 9.16864 6156 ft 62 kts 296°
2026-05-07 17:29 53.93833 9.17171 6302 ft 78 kts 101°
2026-05-07 17:30 53.93481 9.17332 6402 ft 63 kts 257°
2026-05-07 17:30 53.93846 9.17126 6347 ft 86 kts 356°
2026-05-07 17:30 53.94543 9.17183 6280 ft 106 kts 360°
2026-05-07 17:30 53.95295 9.17312 6365 ft 110 kts
2026-05-07 17:31 53.96086 9.17474 6419 ft 119 kts
2026-05-07 17:31 53.96891 9.17717 6556 ft 118 kts
2026-05-07 17:31 53.97675 9.18226 6646 ft 123 kts 26°
2026-05-07 17:31 53.98367 9.19073 6754 ft 123 kts 33°
2026-05-07 17:32 53.98813 9.19688 6834 ft 121 kts 36°
2026-05-07 17:32 53.99458 9.20624 6846 ft 125 kts 39°
2026-05-07 17:32 54.00070 9.21646 6868 ft 119 kts 44°
2026-05-07 17:32 54.00665 9.22663 6689 ft 124 kts 39°
2026-05-07 17:33 54.01305 9.23585 6628 ft 119 kts 35°
2026-05-07 17:33 54.01958 9.24477 6504 ft 121 kts 36°
2026-05-07 17:33 54.02598 9.25371 6391 ft 121 kts 34°
2026-05-07 17:33 54.03272 9.26202 6331 ft 119 kts 30°
2026-05-07 17:34 54.03972 9.26956 6237 ft 120 kts 25°
2026-05-07 17:34 54.04768 9.27369 6105 ft 120 kts
2026-05-07 17:34 54.05550 9.27509 6096 ft 113 kts
2026-05-07 17:34 54.06351 9.27593 6013 ft 114 kts 358°
2026-05-07 17:35 54.07140 9.27683 5906 ft 116 kts 360°
2026-05-07 17:35 54.08044 9.27802 5571 ft 138 kts
2026-05-07 17:35 54.09003 9.27941 5465 ft 139 kts
2026-05-07 17:35 54.09900 9.28064 5681 ft 111 kts 360°
2026-05-07 17:36 54.10662 9.28164 5423 ft 128 kts 359°
2026-05-07 17:36 54.11167 9.28209 5223 ft 140 kts 359°
2026-05-07 17:39 54.11622 9.28249 5127 ft 144 kts 359°
2026-05-07 17:39 54.12586 9.28330 5084 ft 139 kts 358°
2026-05-07 17:39 54.13548 9.28375 4988 ft 138 kts 357°
2026-05-07 17:40 54.14509 9.28348 4878 ft 138 kts 353°
2026-05-07 17:40 54.15463 9.28233 4768 ft 138 kts 352°
2026-05-07 17:40 54.16414 9.28097 4696 ft 135 kts 351°
2026-05-07 17:40 54.17349 9.27909 4558 ft 137 kts 348°
2026-05-07 17:41 54.18275 9.27634 4518 ft 129 kts 342°
2026-05-07 17:41 54.19044 9.27293 4671 ft 105 kts 340°
2026-05-07 17:41 54.19726 9.26931 4575 ft 103 kts 338°
2026-05-07 17:41 54.20446 9.26923 4497 ft 112 kts 24°
2026-05-07 17:42 54.20993 9.27907 4496 ft 118 kts 50°
2026-05-07 17:42 54.21448 9.29006 4552 ft 114 kts 53°
2026-05-07 17:42 54.21904 9.30138 4556 ft 114 kts 52°
2026-05-07 17:42 54.22357 9.31221 4575 ft 111 kts 39°
2026-05-07 17:43 54.23044 9.31644 4660 ft 96 kts
2026-05-07 17:43 54.23690 9.31806 4694 ft 94 kts
2026-05-07 17:43 54.24321 9.32209 4700 ft 99 kts 25°
2026-05-07 17:43 54.24834 9.33043 4705 ft 105 kts 47°
2026-05-07 17:44 54.25284 9.33992 4732 ft 102 kts 47°
2026-05-07 17:44 54.25825 9.34157 4582 ft 102 kts 287°
2026-05-07 17:44 54.25626 9.33048 4610 ft 97 kts 249°
2026-05-07 17:44 54.25163 9.31053 4595 ft 3809 kts 249°
2026-05-07 17:45 54.24112 9.26253 4655 ft 102 kts 263°
2026-05-07 17:45 54.24274 9.25511 5152 ft 65 kts 341°
2026-05-07 17:45 54.24497 9.26135 5256 ft 82 kts 132°
2026-05-07 17:45 54.24216 9.25909 5446 ft 60 kts 304°
2026-05-07 17:46 54.24542 9.26173 5627 ft 71 kts 89°
2026-05-07 17:46 54.24229 9.26389 5750 ft 59 kts 248°
2026-05-07 17:46 54.24510 9.26257 5928 ft 70 kts 64°
2026-05-07 17:46 54.24268 9.26562 6061 ft 55 kts 246°
2026-05-07 17:47 54.24518 9.26375 6205 ft 69 kts 50°
2026-05-07 17:47 54.24323 9.26835 6327 ft 57 kts 225°
2026-05-07 17:47 54.24531 9.26671 6474 ft 69 kts 59°
2026-05-07 17:47 54.24301 9.27053 6593 ft 58 kts 234°
2026-05-07 17:48 54.24522 9.26814 6724 ft 70 kts 43°
2026-05-07 17:48 54.24378 9.27358 6865 ft 60 kts 210°
2026-05-07 17:48 54.24563 9.27157 7008 ft 68 kts 49°
2026-05-07 17:48 54.24386 9.27700 7112 ft 60 kts 206°
2026-05-07 17:49 54.24514 9.27365 7232 ft 66 kts 21°
2026-05-07 17:49 54.24486 9.28007 7353 ft 64 kts 175°
2026-05-07 17:49 54.24491 9.27694 7386 ft 79 kts 27°
2026-05-07 17:49 54.24344 9.28242 7563 ft 61 kts 210°
2026-05-07 17:50 54.24443 9.27833 7667 ft 67 kts
2026-05-07 17:50 54.24482 9.28485 7775 ft 69 kts 165°
2026-05-07 17:50 54.24364 9.28010 7879 ft 59 kts 281°
2026-05-07 17:50 54.24449 9.27342 8020 ft 56 kts 282°
2026-05-07 17:51 54.24552 9.26701 8155 ft 55 kts 285°
2026-05-07 17:51 54.24582 9.26548 8196 ft 53 kts 287°
2026-05-07 17:51 54.24496 9.26099 8289 ft 60 kts 200°
2026-05-07 17:52 54.24285 9.26646 8410 ft 71 kts 55°
2026-05-07 17:52 54.24575 9.26539 8533 ft 57 kts 255°
2026-05-07 17:52 54.24089 9.26303 8296 ft 107 kts 189°
2026-05-07 17:52 54.23273 9.26204 8283 ft 119 kts 187°
2026-05-07 17:53 54.22458 9.26121 8354 ft 120 kts 193°
2026-05-07 17:53 54.21680 9.25525 8407 ft 119 kts 217°
2026-05-07 17:53 54.21035 9.24660 8417 ft 121 kts 226°
2026-05-07 17:53 54.20514 9.23573 8466 ft 117 kts 240°
2026-05-07 17:54 54.20126 9.22353 8458 ft 115 kts 245°
2026-05-07 17:54 54.19755 9.21110 8426 ft 119 kts 244°
2026-05-07 17:54 54.19378 9.19893 8459 ft 115 kts 244°
2026-05-07 17:54 54.18987 9.18698 8385 ft 117 kts 243°
2026-05-07 17:55 54.18597 9.17491 8316 ft 115 kts 243°
2026-05-07 17:55 54.18198 9.16303 8219 ft 115 kts 241°
2026-05-07 17:55 54.17767 9.15141 8088 ft 118 kts 239°
2026-05-07 17:55 54.17337 9.13968 8016 ft 116 kts 241°
2026-05-07 17:56 54.16925 9.12781 7896 ft 117 kts 242°
2026-05-07 17:56 54.16517 9.11588 7815 ft 115 kts 243°
2026-05-07 17:56 54.16139 9.10368 7713 ft 116 kts 245°
2026-05-07 17:56 54.15782 9.09142 7635 ft 115 kts 246°
2026-05-07 17:57 54.15443 9.07900 7543 ft 116 kts 248°
2026-05-07 17:57 54.15210 9.07066 7493 ft 116 kts 244°
2026-05-07 17:57 54.14659 9.05507 7392 ft 116 kts 239°
2026-05-07 17:57 54.14219 9.04348 7307 ft 117 kts 239°
2026-05-07 17:58 54.13779 9.03185 7229 ft 117 kts 239°
2026-05-07 17:58 54.13355 9.02033 7178 ft 114 kts 240°
2026-05-07 17:58 54.12936 9.00882 7096 ft 115 kts 240°
2026-05-07 17:58 54.12528 8.99715 7028 ft 114 kts 242°
2026-05-07 17:59 54.12129 8.98535 6933 ft 116 kts 242°
2026-05-07 17:59 54.11725 8.97367 6882 ft 114 kts 242°
2026-05-07 17:59 54.11328 8.96191 6804 ft 114 kts 243°
2026-05-07 17:59 54.10950 8.95001 6726 ft 114 kts 243°
2026-05-07 18:00 54.10571 8.93815 6643 ft 114 kts 244°
2026-05-07 18:00 54.10216 8.92604 6571 ft 113 kts 246°
2026-05-07 18:00 54.09907 8.91367 6486 ft 114 kts 251°
2026-05-07 18:00 54.09658 8.90096 6413 ft 113 kts 255°
2026-05-07 18:01 54.09461 8.88798 6328 ft 113 kts 259°
2026-05-07 18:01 54.09318 8.87489 6256 ft 113 kts 261°
2026-05-07 18:01 54.09193 8.86172 6184 ft 112 kts 263°
2026-05-07 18:01 54.09108 8.84849 6098 ft 113 kts 266°
2026-05-07 18:02 54.09030 8.82202 5933 ft 113 kts 253°
2026-05-07 18:02 54.08614 8.81057 5860 ft 114 kts 233°
2026-05-07 18:02 54.08109 8.80043 5791 ft 113 kts 232°
2026-05-07 18:03 54.07585 8.79030 5722 ft 113 kts 231°
2026-05-07 18:03 54.07063 8.78041 5632 ft 114 kts 231°
2026-05-07 18:03 54.06518 8.77069 5548 ft 115 kts 211°
2026-05-07 18:03 54.05794 8.77504 5454 ft 128 kts 123°
2026-05-07 18:04 54.05511 8.78945 5361 ft 130 kts 100°
2026-05-07 18:04 54.05373 8.80454 5306 ft 127 kts 101°
2026-05-07 18:04 54.05171 8.81936 5209 ft 129 kts 107°
2026-05-07 18:04 54.04909 8.83387 5145 ft 128 kts 110°
2026-05-07 18:05 54.04609 8.84814 5055 ft 129 kts 111°
2026-05-07 18:05 54.04299 8.86234 4986 ft 128 kts 112°
2026-05-07 18:05 54.03956 8.87635 4903 ft 128 kts 115°
2026-05-07 18:05 54.03600 8.89011 4820 ft 128 kts 115°
2026-05-07 18:06 54.03247 8.90390 4742 ft 127 kts 115°
2026-05-07 18:06 54.02893 8.91769 4630 ft 128 kts 116°
2026-05-07 18:06 54.02525 8.93116 4560 ft 126 kts 117°
2026-05-07 18:06 54.02136 8.94497 4475 ft 128 kts 115°
2026-05-07 18:07 54.01830 8.95881 4424 ft 125 kts 110°
2026-05-07 18:07 54.01568 8.97235 4411 ft 117 kts 109°
2026-05-07 18:07 54.01324 8.98554 4341 ft 117 kts 108°
2026-05-07 18:07 54.01097 8.99858 4291 ft 115 kts 107°
2026-05-07 18:08 54.00881 9.01174 4213 ft 116 kts 106°
2026-05-07 18:08 54.00643 9.02466 4130 ft 115 kts 104°
2026-05-07 18:08 54.00440 9.03772 4076 ft 112 kts 111°
2026-05-07 18:08 54.00158 9.05040 3959 ft 116 kts 113°
2026-05-07 18:09 53.99864 9.06264 3911 ft 112 kts 115°
2026-05-07 18:16 53.99823 9.06437 3791 ft 74 kts 115°
2026-05-07 18:16 53.99531 9.07556 3549 ft 108 kts 117°
2026-05-07 18:17 53.99219 9.08658 3478 ft 107 kts 118°
2026-05-07 18:17 53.98798 9.09966 2855 ft 156 kts 122°
2026-05-07 18:17 53.98392 9.10540 3528 ft 33 kts 209°
2026-05-07 18:17 53.98808 9.09688 2104 ft 117 kts 309°
2026-05-07 18:18 53.98916 9.09571 2248 ft 29 kts 201°
2026-05-07 18:18 53.98256 9.09176 2042 ft 61 kts 163°
2026-05-07 18:18 53.97912 9.09730 1900 ft 78 kts 76°
2026-05-07 18:18 53.97872 9.10601 1520 ft 122 kts 98°
2026-05-07 18:19 53.97688 9.12183 1058 ft 146 kts 95°
2026-05-07 18:19 53.97773 9.13901 156 ft 152 kts 81°
2026-05-07 18:19 53.97866 9.15596 357 ft 117 kts 107°
2026-05-07 18:19 53.97839 9.16546 683 ft 71 kts 40°
2026-05-07 18:20 53.97981 9.16248 560 ft 51 kts 244°
2026-05-07 18:20 53.97924 9.15651 270 ft 54 kts 263°
2026-05-07 18:20 53.97872 9.15067 125 ft 42 kts 262°
2026-05-07 18:20 53.97836 9.14767 124 ft 0 kts 94°
2026-05-07 18:21 53.97836 9.14768 124 ft 0 kts 98°
2026-05-07 18:21 53.97825 9.14963 129 ft 17 kts 99°
2026-05-07 18:21 53.97838 9.14959 129 ft 11 kts 212°
2026-05-07 18:21 53.97813 9.14942 127 ft 1 kts 188°